This is the latest recevied weather packets stored in our database for station/object K5IDL. If no packets are shown the sender has not sent any weather packets the latest 1 day(s).
| Time | Temp. | Humidity | Pressure | Rain* | Wind** | Luminosity | Snow |
|---|---|---|---|---|---|---|---|
| 1777989535 | 23.33° C | 80% | 1005.7 hPa | 0 mm | 0.45 m/s, 342° | 118 W/m² | - |
| 1777989231 | 23.33° C | 80% | 1006 hPa | 0 mm | 1.34 m/s, 216° | 99 W/m² | - |
| 1777988927 | 23.33° C | 81% | 1005.5 hPa | 0 mm | 0.45 m/s, 311° | 87 W/m² | - |
| 1777988624 | 23.33° C | 81% | 1005.4 hPa | 0 mm | 0.45 m/s, 327° | 71 W/m² | - |
| 1777988321 | 23.33° C | 81% | 1005.4 hPa | 0 mm | 0.45 m/s, 4° | 62 W/m² | - |
| 1777988018 | 23.33° C | 81% | 1005.1 hPa | 0 mm | 0.89 m/s, 305° | 61 W/m² | - |
| 1777987713 | 23.33° C | 81% | 1005.3 hPa | 0 mm | 1.79 m/s, 193° | 62 W/m² | - |
| 1777987411 | 23.33° C | 82% | 1005.6 hPa | 0 mm | 0.45 m/s, 174° | 61 W/m² | - |
| 1777987108 | 22.78° C | 82% | 1005.6 hPa | 0 mm | 0.45 m/s, 209° | 76 W/m² | - |
| 1777986805 | 22.78° C | 82% | 1005.6 hPa | 0 mm | 0.45 m/s, 211° | 47 W/m² | - |
| 1777986503 | 22.78° C | 82% | 1005.8 hPa | 0 mm | 0 m/s | 47 W/m² | - |
| 1777986201 | 22.78° C | 83% | 1005.8 hPa | 0 mm | 0.89 m/s, 221° | 41 W/m² | - |
| 1777985898 | 22.78° C | 83% | 1005.3 hPa | 0 mm | 0.45 m/s, 225° | 26 W/m² | - |
| 1777985595 | 22.78° C | 83% | 1005.3 hPa | 0 mm | 0.89 m/s, 153° | 32 W/m² | - |
| 1777985291 | 22.78° C | 83% | 1005.3 hPa | 0 mm | 0 m/s | 35 W/m² | - |
| 1777984988 | 22.78° C | 83% | 1005.4 hPa | 0 mm | 0 m/s | 24 W/m² | - |
| 1777984684 | 22.78° C | 83% | 1005.4 hPa | 0 mm | 0.45 m/s, 97° | 26 W/m² | - |
| 1777984381 | 22.78° C | 83% | 1004.9 hPa | 0 mm | 0.45 m/s, 322° | 26 W/m² | - |
| 1777984077 | 22.78° C | 83% | 1004.9 hPa | 0 mm | 0.45 m/s, 338° | 18 W/m² | - |
| 1777983775 | 22.78° C | 83% | 1004.7 hPa | 0 mm | 0.89 m/s, 206° | 13 W/m² | - |
| 1777983471 | 22.78° C | 82% | 1005 hPa | 0 mm | 0.45 m/s, 270° | 10 W/m² | - |
| 1777983168 | 22.78° C | 82% | 1004.8 hPa | 0 mm | 0.45 m/s, 34° | 8 W/m² | - |
| 1777982864 | 22.78° C | 82% | 1004.9 hPa | 0 mm | 0.45 m/s, 301° | 7 W/m² | - |
| 1777982560 | 22.78° C | 83% | 1004.8 hPa | 0 mm | 0.45 m/s, 18° | 8 W/m² | - |
| 1777982259 | 22.78° C | 83% | 1004.8 hPa | 0 mm | 0.89 m/s, 50° | 4 W/m² | - |
* Rain latest hour (hover to see other rain measurements)
** Current wind speed in m/s (hover to see current wind gust speed)